Stations météo

réclame
Mon MeteoGroup
Culdrose, Grande-Bretagne (3809): Température de l'air & dewpoint: 14.09.2018 18:00:00 - 20.09.2018 18:00:00 (BST)Culdrose, Grande-Bretagne (3809): Vitesse du vent & gusts: 14.09.2018 18:00:00 - 20.09.2018 18:00:00 (BST)Culdrose, Grande-Bretagne (3809): Direction du vent: 14.09.2018 18:00:00 - 20.09.2018 18:00:00 (BST)Culdrose, Grande-Bretagne (3809): reduced air pressure: 14.09.2018 18:00:00 - 20.09.2018 18:00:00 (BST)Culdrose, Grande-Bretagne (3809): visibility: 14.09.2018 18:00:00 - 20.09.2018 18:00:00 (BST)Culdrose, Grande-Bretagne (3809): Quantités de précipitations: 14.09.2018 18:00:00 - 20.09.2018 18:00:00 (BST)
Date & Time tt [°C] td [°C] ff [km/h] ff [knt] fx [km/h] fx [knt] dd ppp [hPa] vv [km] rr [mm]
20.09.2018 18:00:00 - - - - - - - - - -
20.09.2018 17:00:00 17,3 16,3 35 19 67 36 SSW 1004,6 5 0,0
20.09.2018 16:00:00 17,3 16,4 37 20 68 37 SSW 1005,9 5 0,0
20.09.2018 15:00:00 17,1 16,3 37 20 65 35 SSW 1007,0 5 0,0
20.09.2018 14:00:00 17,7 16,6 35 19 70 38 SSW 1007,5 4,0 0,0
20.09.2018 13:00:00 17,0 16,2 34 18 63 34 SSW 1008,1 4,0 0,0
20.09.2018 12:00:00 17,0 16,2 37 20 67 36 SSW 1008,9 4,0 0,0
20.09.2018 11:00:00 16,8 16,1 35 19 59 32 SSW 1009,2 4,0 0,0
20.09.2018 10:00:00 16,7 16,0 31 17 55 30 SSW 1009,9 5 0,0
20.09.2018 09:00:00 16,4 15,9 34 18 54 29 SSW 1010,3 5 0,2
20.09.2018 08:00:00 16,3 15,8 31 17 52 28 SSW 1010,6 4,0 0,0
20.09.2018 07:00:00 16,3 15,8 28 15 48 26 SSW 1010,8 4,0 0,0
20.09.2018 06:00:00 16,2 15,9 29 16 55 30 SSW 1011,1 3,5 0,6
20.09.2018 05:00:00 16,4 15,8 34 18 54 29 SSW 1011,4 4,5 0,0
20.09.2018 04:00:00 16,3 15,7 31 17 52 28 SSW 1011,8 8 0,0
20.09.2018 03:00:00 16,3 15,9 31 17 55 30 SSW 1011,9 4,0 0,0
20.09.2018 02:00:00 16,2 15,9 31 17 55 30 SSW 1012,2 7 0,0
20.09.2018 01:00:00 16,2 16,1 34 18 52 28 SSW 1012,5 5 0,0
20.09.2018 00:00:00 15,8 15,7 26 14 - - SSW 1013,2 2,0 0,8
19.09.2018 23:00:00 13,7 13,6 0 0 - - N 1013,9 2,0 0,6
19.09.2018 22:00:00 13,8 13,6 9 5 - - W 1014,6 2,4 0,6
19.09.2018 21:00:00 14,1 13,6 13 7 - - WSW 1014,8 2,8 0,4
19.09.2018 20:00:00 14,9 13,9 11 6 - - SSW 1014,4 4,0 0,0
19.09.2018 19:00:00 14,7 14,0 8 4 - - WSW 1014,4 4,0 0,0
19.09.2018 18:00:00 15,1 13,9 15 8 - - W 1014,6 4,0 0,0
19.09.2018 17:00:00 15,7 15,2 18 10 - - WSW 1014,1 4,0 0,0
19.09.2018 16:00:00 16,0 15,5 21 11 - - WSW 1013,6 7 0,2
19.09.2018 15:00:00 16,1 14,9 16 9 55 30 WSW 1013,4 4,0 0,0
19.09.2018 14:00:00 17,8 15,3 31 17 55 30 SW 1012,9 8 0,0
19.09.2018 13:00:00 17,9 14,9 34 18 59 32 SW 1012,4 8 0,0
19.09.2018 12:00:00 18,9 16,1 34 18 63 34 SW 1011,9 8 0,0
19.09.2018 11:00:00 18,3 16,0 34 18 63 34 SSW 1011,3 8 0,0
19.09.2018 10:00:00 17,5 16,0 34 18 59 32 SSW 1011,1 10 0,0
19.09.2018 09:00:00 16,8 15,7 37 20 61 33 SSW 1010,5 10 0,0
19.09.2018 08:00:00 16,4 15,3 37 20 59 32 SSW 1010,4 8 0,0
19.09.2018 07:00:00 16,4 15,5 34 18 57 31 SSW 1010,0 8 0,0
19.09.2018 06:00:00 16,4 15,8 34 18 52 28 SSW 1010,0 5 0,0
19.09.2018 05:00:00 16,2 15,6 34 18 50 27 SSW 1010,1 5 0,0
19.09.2018 04:00:00 16,3 15,8 26 14 46 25 SSW 1010,3 6 0,0
19.09.2018 03:00:00 16,0 15,6 26 14 - - SSW 1010,9 6 0,0
19.09.2018 02:00:00 15,8 15,4 24 13 - - SSW 1011,2 6 0,0
19.09.2018 01:00:00 15,8 15,4 24 13 - - SW 1011,5 5 0,0
19.09.2018 00:00:00 16,0 15,6 26 14 - - SSW 1011,3 4,0 0,0
18.09.2018 23:00:00 16,5 16,0 29 16 52 28 SW 1011,5 3,0 0,0
18.09.2018 22:00:00 16,6 16,1 34 18 55 30 SSW 1010,9 5 0,0
18.09.2018 21:00:00 16,8 15,9 31 17 54 29 SSW 1010,6 3,0 0,0
18.09.2018 20:00:00 16,9 16,0 29 16 54 29 SSW 1010,7 5 0,0
18.09.2018 19:00:00 16,9 16,0 28 15 52 28 SSW 1010,6 6 0,0
18.09.2018 18:00:00 17,0 15,8 29 16 52 28 SSW 1010,7 6 0,0
18.09.2018 17:00:00 17,7 16,0 31 17 52 28 SSW 1010,7 8 0,0
18.09.2018 16:00:00 17,8 16,0 29 16 52 28 SSW 1010,6 8 0,0
18.09.2018 15:00:00 17,8 15,9 29 16 50 27 SSW 1010,6 10 0,0
18.09.2018 14:00:00 17,3 15,8 26 14 48 26 SSW 1010,5 10 0,0
18.09.2018 13:00:00 17,6 15,7 29 16 50 27 SSW 1010,2 8 0,0
18.09.2018 12:00:00 17,7 15,9 29 16 50 27 SSW 1010,0 10 0,0
18.09.2018 11:00:00 16,7 15,5 28 15 48 26 SSW 1009,5 10 0,0
18.09.2018 10:00:00 16,7 15,0 31 17 50 27 SSW 1008,9 14 0,0
18.09.2018 09:00:00 16,0 14,4 24 13 - - SW 1008,7 16 0,0
18.09.2018 08:00:00 15,3 13,6 22 12 48 26 WSW 1007,8 10 0,0
18.09.2018 07:00:00 15,6 13,0 22 12 61 33 WSW 1006,8 10 0,0
18.09.2018 06:00:00 15,3 12,8 28 15 59 32 WSW 1005,9 7 0,0
18.09.2018 05:00:00 15,5 13,8 29 16 63 34 WSW 1004,8 4,0 0,0
18.09.2018 04:00:00 15,3 15,0 34 18 67 36 WSW 1003,7 4,0 0,2
18.09.2018 03:00:00 15,7 15,6 44 24 70 38 SW 1002,7 4,0 0,0
18.09.2018 02:00:00 16,1 15,9 42 23 74 40 SW 1002,0 3,0 0,0
18.09.2018 01:00:00 16,4 16,2 42 23 78 42 SSW 1001,5 1,5 0,2
18.09.2018 00:00:00 16,9 16,3 41 22 74 40 S 1001,5 4,0 0,0
17.09.2018 23:00:00 17,3 16,2 37 20 78 42 S 1002,2 5 0,0
17.09.2018 22:00:00 17,3 16,2 31 17 67 36 S 1003,2 7 0,0
17.09.2018 21:00:00 17,3 16,0 28 15 61 33 S 1004,3 8 0,0
17.09.2018 20:00:00 17,0 15,8 28 15 54 29 S 1005,1 8 0,0
17.09.2018 19:00:00 17,1 15,6 26 14 55 30 S 1005,9 8 0,0
17.09.2018 18:00:00 17,4 15,6 28 15 57 31 SSE 1006,8 8 0,0
17.09.2018 17:00:00 17,2 15,2 28 15 63 34 S 1007,9 8 0,0
17.09.2018 16:00:00 18,6 14,7 34 18 67 36 S 1008,7 10 0,0
17.09.2018 15:00:00 19,0 14,8 29 16 61 33 S 1009,9 10 0,0
17.09.2018 14:00:00 18,2 14,9 28 15 63 34 S 1011,0 10 0,0
17.09.2018 13:00:00 17,7 15,8 29 16 54 29 S 1011,7 10 0,0
17.09.2018 12:00:00 17,3 16,3 22 12 - - S 1012,4 10 0,0
17.09.2018 11:00:00 17,6 16,8 22 12 - - S 1013,0 16 0,0
17.09.2018 10:00:00 17,0 17,0 21 11 - - S 1013,3 6 0,0
17.09.2018 09:00:00 16,6 16,5 22 12 - - S 1013,7 1,5 0,0
17.09.2018 08:00:00 16,8 16,8 18 10 - - S 1013,9 0,1 0,0
17.09.2018 07:00:00 16,9 16,9 16 9 - - S 1014,0 0,3 0,4
17.09.2018 06:00:00 16,8 16,8 13 7 - - S 1014,1 - 0,0
17.09.2018 05:00:00 16,5 16,5 16 9 - - S 1014,6 0,4 0,0
17.09.2018 04:00:00 16,4 16,4 16 9 - - SSW 1015,2 0,3 0,4
17.09.2018 03:00:00 16,7 16,7 18 10 - - SSW 1015,6 0,3 0,0
17.09.2018 02:00:00 16,6 16,6 24 13 - - SW 1016,0 0,3 0,4
17.09.2018 01:00:00 17,0 17,0 28 15 - - SSW 1016,3 0,1 0,0
17.09.2018 00:00:00 17,0 17,0 24 13 - - SSW 1016,5 0,2 0,0
16.09.2018 23:00:00 17,1 17,0 31 17 46 25 SSW 1017,1 0,3 0,6
16.09.2018 22:00:00 17,0 17,0 28 15 - - S 1017,3 1,8 0,2
16.09.2018 21:00:00 16,8 16,6 24 13 - - S 1017,1 4,3 0,0
16.09.2018 20:00:00 17,0 16,9 28 15 - - SSW 1017,0 6 0,0
16.09.2018 19:00:00 17,2 16,9 26 14 - - SSW 1017,0 7 0,0
16.09.2018 18:00:00 17,2 16,7 24 13 - - SSW 1016,9 9 0,0
16.09.2018 17:00:00 17,5 16,9 26 14 - - SSW 1016,9 11 0,0
16.09.2018 16:00:00 17,4 16,8 28 15 - - SSW 1017,3 11 0,0
16.09.2018 15:00:00 16,9 16,3 22 12 - - SSW 1017,5 9 0,0
16.09.2018 14:00:00 17,5 16,6 31 17 - - SSW 1017,4 13 0,0
16.09.2018 13:00:00 17,5 16,6 31 17 - - SSW 1017,5 13 0,0
16.09.2018 12:00:00 17,2 16,4 31 17 - - SSW 1017,6 15 0,0
16.09.2018 11:00:00 16,7 16,0 29 16 - - SSW 1017,9 13 0,0
16.09.2018 10:00:00 16,7 15,7 31 17 - - SSW 1017,7 10 0,0
16.09.2018 09:00:00 16,3 15,5 28 15 - - S 1017,6 15 0,0
16.09.2018 08:00:00 16,1 15,0 26 14 - - S 1017,7 17 0,0
16.09.2018 07:00:00 16,1 14,7 28 15 - - S 1017,4 17 0,0
16.09.2018 06:00:00 15,8 14,3 29 16 - - S 1017,2 20 0,0
16.09.2018 05:00:00 15,5 13,8 29 16 - - S 1017,6 23 0,0
16.09.2018 04:00:00 15,3 13,2 28 15 - - S 1018,3 10 0,0
16.09.2018 03:00:00 15,0 12,5 24 13 - - S 1019,0 30 0,0
16.09.2018 02:00:00 14,1 12,3 21 11 - - S 1019,9 10 0,0
16.09.2018 01:00:00 14,3 12,9 22 12 - - S 1021,0 25 0,0
16.09.2018 00:00:00 13,9 12,6 18 10 - - S 1021,3 25 0,0
15.09.2018 23:00:00 13,8 12,6 16 9 - - S 1021,9 24 0,0
15.09.2018 22:00:00 13,6 11,1 18 10 - - S 1022,1 30 0,0
15.09.2018 21:00:00 14,1 11,1 16 9 - - S 1022,3 30 0,0
15.09.2018 20:00:00 14,5 10,7 16 9 - - S 1022,4 30 0,0
15.09.2018 19:00:00 15,5 11,2 16 9 - - S 1022,7 35 0,0
15.09.2018 18:00:00 15,8 10,8 22 12 - - S 1022,6 35 0,0
15.09.2018 17:00:00 16,0 12,2 24 13 - - S 1023,0 35 0,0
15.09.2018 16:00:00 16,8 13,1 22 12 - - S 1023,5 35 0,0
15.09.2018 15:00:00 16,6 12,7 21 11 - - S 1024,2 35 0,0
15.09.2018 14:00:00 16,7 11,4 24 13 - - SSW 1024,7 40 0,0
15.09.2018 13:00:00 17,4 12,1 22 12 - - SSW 1024,8 40 0,0
15.09.2018 12:00:00 15,9 12,2 16 9 - - SSW 1025,3 28 0,0
15.09.2018 11:00:00 15,8 12,4 11 6 - - SW 1025,4 35 0,0
15.09.2018 10:00:00 15,9 14,3 11 6 - - SW 1025,4 10 0,0
15.09.2018 09:00:00 13,7 13,7 8 4 - - SW 1025,3 26 0,2
15.09.2018 08:00:00 11,8 11,8 8 4 - - SW 1025,1 13 0,0
15.09.2018 07:00:00 8,4 8,2 4 2 - - SSW 1024,8 0,2 0,0
15.09.2018 06:00:00 11,0 10,9 5 3 - - WSW 1024,6 4,1 0,0
15.09.2018 05:00:00 11,8 11,6 5 3 - - WSW 1024,3 5 0,0
15.09.2018 04:00:00 12,1 11,9 9 5 - - WSW 1024,5 12 0,0
15.09.2018 03:00:00 12,3 12,0 11 6 - - W 1024,8 10 0,0
15.09.2018 02:00:00 11,9 11,4 8 4 - - W 1024,7 15 0,0
15.09.2018 01:00:00 12,7 11,9 16 9 - - W 1024,7 17 0,0
15.09.2018 00:00:00 13,5 12,3 13 7 - - W 1024,7 20 0,0
14.09.2018 23:00:00 13,8 11,7 16 9 - - W 1024,6 26 0,0
14.09.2018 22:00:00 14,6 12,4 18 10 - - W 1024,4 10 0,0
14.09.2018 21:00:00 14,1 12,2 18 10 - - W 1024,1 25 0,0
14.09.2018 20:00:00 14,6 12,0 21 11 - - W 1023,7 10 0,0
14.09.2018 19:00:00 15,6 11,5 24 13 - - W 1023,4 30 0,0
14.09.2018 18:00:00 16,1 12,9 16 9 - - WSW 1023,1 29 0,0

tt = Température de l'air
td = dewpoint
ff = Vitesse du vent
fx = gusts
dd = Direction du vent
ppp = reduced air pressure
vv = visibility
rr = Quantités de précipitations

stations d'obs. à proximité